THORAD AGENA D DEB, 42500

Orbit data source: Space-Track

THORAD AGENA D DEB, 42500 is space debris in SSO originally from a launch on Wed, 08 Apr 1970 UTC launched from the Air Force Western Test Range (AFWTR). Debris objects in space refer to the collection of defunct objects orbiting the Earth. Examples of debris include non-operational satellites, rocket bodies, and fragments generated from explosions, collisions, or faulty payload assembly.

Loading next visibility...
Identifier
42500, 1970-025RE
Orbit
SSO
Country
Flag of USUS
Related business
Manufacturer
Unknown
Mission
Spacecraft
Bus & Motor
Unknown
Mass
Unknown
Launch date (UTC)
1970-04-08 (56 years ago)
Launch vehicle
Unknown
Launch site
Air Force Western Test Range (AFWTR)
Object type
Payload
Rocket body
Debris
Shape & HBR
Unknown shape, 0.1 m
Radar Cross Section
Small (<0.1 m²)

Expand to show TLE details & history
Last TLE update: 1 day ago

TLE from 1 day ago
0 THORAD AGENA D DEB
1 42500U 70025RE  25286.39918309  .00000123  00000-0  24353-3 0  9996
2 42500  99.4665 152.9721 0010281 141.0455  38.8608 13.53949852587485
Epoch: 2025-10-13T09:34Z
TLE epoch observation values (Epoch: 2025-10-13T09:34:49.418Z)
Latitude
-0.09329°
Longitude
167.04819°
Altitude
1,054.622 km
Speed
7.328 km/s
True Right ascension
22h 11m 49s
True Declination
0° 05' 34"
Sunlit
Object was in full shadow at epoch
Visualization orbit readout
Latitude
Unknown
Longitude
Unknown
Altitude
Unknown
Speed
Unknown
Apparent Right ascension
Unknown
Apparent Declination
Unknown
Sunlit
N/A
Visualization observer readout
Local Sidereal Time
09:02:47
Azimuth
Unknown
Elevation
Unknown
Doppler factor
Unknown
Orbital elements
Apogee altitude
1,062.688 km
Perigee altitude
1,047.404 km
Semi-major axis
7,433.183 km
Eccentricity
0.00103
Inclination
99.4665°
RAAN
152.9721°
Arg. of periapsis
141.0455°
True anomaly
38.93479°
Mean anomaly
38.8608°
Eccentric anomaly
38.89779°
Mean motion
3.38673 °/min
Orbital period
106.3 mins
BSTAR
0.00024353
Loading maneuver chart data...
Computing Atmospheric mass density...

Documentation

Showing up to 5 results
|